[[{"header":{"parameterUnit":"m.s-1","parameterCategory":1,"la1":30.2991,"la2":30.254,"lo1":-89.0895,"lo2":-89.0444,"dy":0.0017,"dx":0.0017,"nx":28,"ny":28,"refTime":"2025-01-13T03:00:00:Z","depth":0,"parameterNumber":2,"parameterNumberName":"U-component_of_WINDS"},"data":[0,0,0,0,0,0,0,0,0,0,0,0,0,0,0,0,0,0,0,0,0,0,0,0,0,0,0,0,0,0,0,0,0,0,0,0,0,0,0,0,0,0,0,0,0,0,0,0,0,0,0,0,0,0,0,0,0,0,-3.125,-3.1251,0,-3.1342,-3.1343,-3.1344,-3.128,-3.1277,-3.1274,-3.1271,-3.1368,-3.1373,-3.1378,0,0,0,0,0,0,0,0,0,0,0,0,0,-3.1021,-3.1026,-3.125,-3.1251,-3.1252,-3.1341,-3.1343,-3.1344,-3.128,-3.1277,-3.1273,-3.127,-3.1366,-3.1373,-3.1379,0,0,0,0,0,0,0,0,0,0,0,0,0,-3.1118,-3.1027,-3.1249,-3.1231,-3.123,-3.1341,-3.1343,-3.1344,-3.1281,-3.1277,-3.1272,-3.1268,-3.1364,-3.1372,-3.138,-3.1515,0,0,-3.1404,-3.1407,0,0,0,0,0,0,0,0,-3.1112,-3.1126,-3.1233,-3.1232,-3.1232,-3.1295,-3.1297,-3.1402,-3.1282,-3.1262,-3.1271,-3.1266,-3.1347,-3.1356,-3.1383,-3.1519,-3.1523,-3.1405,-3.1409,-3.1413,-3.1415,0,0,0,0,0,0,0,-3.1106,-3.1122,-3.1286,-3.1234,-3.1234,-3.1219,-3.1228,-3.1317,-3.1328,-3.1263,-3.1259,-3.127,-3.1346,-3.1376,-3.1385,-3.1525,-3.1404,-3.1411,-3.1416,-3.1419,-3.1777,-3.1782,0,0,0,0,0,0,-3.11,-3.1117,-3.1283,-3.1289,-3.116,-3.1226,-3.1236,-3.1279,-3.1327,-3.133,-3.1274,-3.1267,-3.1364,-3.1376,-3.1388,-3.155,-3.1413,-3.142,-3.1425,-3.1772,-3.1778,-3.1783,0,0,0,0,0,0,-3.1096,-3.1116,-3.1279,-3.1202,-3.1221,-3.1235,-3.1283,-3.1283,-3.1312,-3.1335,-3.1337,-3.1302,-3.1361,-3.1377,-3.1484,-3.1553,-3.1424,-3.1431,-3.1767,-3.1774,-3.1781,-3.1876,0,0,0,0,0,0,-3.1089,-3.1114,-3.1165,-3.1203,-3.1226,-3.1373,-3.1287,-3.1288,-3.1326,-3.1318,-3.1361,-3.1365,-3.1359,-3.1472,-3.1492,-3.1561,-3.1437,-3.1761,-3.177,-3.1778,-3.1866,-3.1885,-3.1901,0,0,0,0,0,-3.1081,-3.1189,-3.1168,-3.1189,-3.129,-3.1377,-3.139,-3.1381,-3.1332,-3.1384,-3.1398,-3.1363,-3.1541,-3.1484,-3.1505,-3.1578,-3.1756,-3.1767,-3.1778,-3.1859,-3.1881,-3.1901,0,0,0,0,0,0,-3.116,-3.1194,-3.1171,-3.1294,-3.1333,-3.1366,-3.1432,-3.1406,-3.146,-3.1451,-3.1438,-3.1448,-3.156,-3.1579,-3.1514,-3.1712,-3.1641,-3.1657,-3.1695,-3.1717,-3.1734,-3.1729,-3.1443,0,0,0,0,0,-3.1192,-3.1259,-3.1285,-3.1391,-3.1412,-3.1418,-3.1456,-3.1446,-3.1486,-3.1503,-3.1525,-3.1566,-3.1631,-3.1675,-3.1736,-3.1868,-3.1877,-3.1929,-3.1946,-3.196,-3.1975,-3.2047,-3.207,-3.1819,-3.1818,-3.1818,0,0,-3.1258,-3.1284,-3.1328,-3.1408,-3.1437,-3.1508,-3.1433,-3.1512,-3.1565,-3.1515,-3.1617,-3.1635,-3.168,-3.18,-3.1854,-3.182,-3.2046,-3.1974,-3.1985,-3.1992,-3.206,-3.2084,-3.2105,-3.1826,-3.1825,-3.1823,0,0,-3.1416,-3.1442,-3.1533,-3.1564,-3.1609,-3.1612,-3.1634,-3.1671,-3.1681,-3.1783,-3.1747,-3.181,-3.1923,-3.1957,-3.1989,-3.2158,-3.2129,-3.2178,-3.227,-3.2341,-3.2361,-3.2378,-3.244,-3.2463,-3.2192,-3.2192,-3.2192,0,-3.1493,-3.1598,-3.1584,-3.1666,-3.1702,-3.1659,-3.1752,-3.1782,-3.1845,-3.1872,-3.1832,-3.1972,-3.1999,-3.2127,-3.2169,-3.2195,-3.2221,-3.2175,-3.2358,-3.2376,-3.2392,-3.2451,-3.2475,-3.2198,-3.2197,-3.2197,-3.2196,0,-3.1692,-3.1765,-3.1834,-3.1895,-3.1939,-3.2026,-3.2026,-3.2072,-3.2057,-3.2065,-3.217,-3.2201,-3.2268,-3.2297,-3.2283,-3.2423,-3.2401,-3.236,-3.2289,-3.2422,-3.2478,-3.25,-3.2207,-3.2204,-3.2203,-3.2201,0,0,-3.1904,-3.1955,-3.1981,-3.2008,-3.2054,-3.2111,-3.2196,-3.2261,-3.2301,-3.2345,-3.2418,-3.2513,-3.2475,-3.2512,-3.2501,-3.2563,-3.2697,-3.2515,-3.2516,-3.2549,-3.2855,-3.2887,-3.2914,-3.2677,-3.2681,-3.2684,-3.2852,0,-3.2066,-3.2214,-3.2203,-3.2343,-3.2411,-3.2371,-3.2445,-3.2481,-3.2491,-3.255,-3.256,-3.2629,-3.2574,-3.2595,-3.2654,-3.2669,-3.2759,-3.2656,-3.2746,-3.2749,-3.2738,-3.2942,-3.2977,-3.3134,-3.2873,-3.2877,-3.288,0,-3.2275,-3.2326,-3.2473,-3.2508,-3.2536,-3.2603,-3.2662,-3.2719,-3.2759,-3.2762,-3.2802,-3.2781,-3.2868,-3.2793,-3.2913,-3.2843,-3.2879,-3.2891,-3.2897,-3.2907,-3.2824,-3.296,-3.3183,-3.3208,-3.2913,-3.2911,-3.2908,0,-3.2418,-3.2523,-3.2624,-3.2648,-3.2692,-3.274,-3.276,-3.2796,-3.2836,-3.2887,-3.2913,-3.2973,-3.3007,-3.3055,-3.3052,-3.2997,-3.3174,-3.3099,-3.318,-3.318,-3.3221,-3.3219,-3.3455,-3.324,-3.324,-3.324,-3.3239,0,-3.2601,-3.2693,-3.2689,-3.2752,-3.2854,-3.284,-3.2941,-3.2956,-3.2988,-3.3054,-3.3022,-3.3084,-3.3074,-3.3137,-3.3134,-3.3235,-3.325,-3.3255,-3.3254,-3.326,-3.326,-3.3285,-3.3275,-3.3246,-3.3244,-3.3243,-3.3242,0,-3.2779,-3.2779,-3.2888,-3.2919,-3.2929,-3.3003,-3.3031,-3.309,-3.3096,-3.3179,-3.3198,-3.3208,-3.328,-3.328,-3.3363,-3.3361,-3.3485,-3.347,-3.3471,-3.3469,-3.3551,-3.3545,-3.3814,-3.3849,-3.3609,-3.3612,-3.3613,0,-3.2897,-3.2966,-3.3005,-3.3046,-3.307,-3.3136,-3.3176,-3.3165,-3.3208,-3.3259,-3.3313,-3.3382,-3.3437,-3.3554,-3.3569,-3.3632,-3.362,-3.3709,-3.3629,-3.3633,-3.3624,-3.3621,-3.3628,-3.3726,-3.3729,-3.3731,-3.3733,0,-3.3107,-3.3104,-3.3162,-3.3222,-3.327,-3.3316,-3.3359,-3.3394,-3.3388,-3.3438,-3.3511,-3.3553,-3.3637,-3.3706,-3.3767,-3.3788,-3.3761,-3.3758,-3.378,-3.3788,-3.3787,-3.3791,-3.3517,-3.3752,-3.375,-3.3749,-3.3748,-3.3747,-3.326,-3.3321,-3.3357,-3.3424,-3.3454,-3.3495,-3.3553,-3.3565,-3.3625,-3.3692,-3.3682,-3.3763,-3.3802,-3.388,-3.3907,-3.3971,-3.394,-3.3972,-3.3981,-3.399,-3.4,-3.3774,-3.3982,-3.3981,-3.3981,-3.398,-3.398,0,-3.3471,-3.3492,-3.3553,-3.3613,-3.3666,-3.3633,-3.3678,-3.3724,-3.3797,-3.3834,-3.3888,-3.3972,-3.4039,-3.4058,-3.4123,-3.4171,-3.416,-3.4188,-3.4186,-3.4192,-3.4023,-3.3998,-3.4196,-3.4196,-3.4196,-3.4196,-3.4196,-3.4196,-3.3587,-3.3687,-3.3688,-3.3804,-3.3824,-3.3904,-3.3933,-3.397,-3.4,-3.4095,-3.415,-3.4162,-3.4192,-3.4259,-3.4319,-3.4323,-3.4349,-3.4384,-3.4383,-3.4225,-3.4204,-3.4183,-3.416,-3.4389,-3.4389,-3.4547,-3.4548,-3.4549]},{"header":{"parameterUnit":"m.s-1","parameterCategory":1,"la1":30.2991,"la2":30.254,"lo1":-89.0895,"lo2":-89.0444,"dy":0.0017,"dx":0.0017,"nx":28,"ny":28,"refTime":"2025-01-13T03:00:00:Z","depth":0,"parameterNumber":3,"parameterNumberName":"V-component_of_WINDS"},"data":[0,0,0,0,0,0,0,0,0,0,0,0,0,0,0,0,0,0,0,0,0,0,0,0,0,0,0,0,0,0,0,0,0,0,0,0,0,0,0,0,0,0,0,0,0,0,0,0,0,0,0,0,0,0,0,0,0,0,-6.3512,-6.3513,0,-6.3537,-6.3537,-6.3538,-6.3427,-6.3424,-6.3421,-6.3417,-6.3441,-6.3445,-6.3448,0,0,0,0,0,0,0,0,0,0,0,0,0,-6.3367,-6.337,-6.3512,-6.3513,-6.3513,-6.3537,-6.3537,-6.3538,-6.3428,-6.3424,-6.342,-6.3416,-6.344,-6.3444,-6.3449,0,0,0,0,0,0,0,0,0,0,0,0,0,-6.3415,-6.3371,-6.3512,-6.3461,-6.3457,-6.3537,-6.3537,-6.3538,-6.3428,-6.3424,-6.3419,-6.3414,-6.3439,-6.3444,-6.3449,-6.358,0,0,-6.3466,-6.3468,0,0,0,0,0,0,0,0,-6.3412,-6.342,-6.3468,-6.3465,-6.346,-6.3474,-6.3494,-6.3552,-6.343,-6.3439,-6.3417,-6.3412,-6.3456,-6.346,-6.3475,-6.3581,-6.3582,-6.3466,-6.347,-6.3472,-6.3474,0,0,0,0,0,0,0,-6.3409,-6.3418,-6.3522,-6.3469,-6.3464,-6.3436,-6.3437,-6.3505,-6.3474,-6.3438,-6.343,-6.3434,-6.3453,-6.347,-6.3475,-6.3582,-6.3466,-6.3471,-6.3474,-6.3477,-6.3795,-6.38,0,0,0,0,0,0,-6.3413,-6.3416,-6.3521,-6.3523,-6.3424,-6.3442,-6.3444,-6.3474,-6.3473,-6.3468,-6.3439,-6.3429,-6.3463,-6.3468,-6.3475,-6.3627,-6.3472,-6.3477,-6.348,-6.379,-6.3796,-6.3802,0,0,0,0,0,0,-6.341,-6.3423,-6.352,-6.3467,-6.3478,-6.345,-6.3485,-6.3477,-6.3494,-6.3474,-6.3467,-6.3462,-6.3459,-6.3467,-6.3554,-6.3626,-6.348,-6.3484,-6.3784,-6.3792,-6.3799,-6.3933,0,0,0,0,0,0,-6.3406,-6.3423,-6.3473,-6.3469,-6.3481,-6.36,-6.3489,-6.3481,-6.3504,-6.3492,-6.3494,-6.349,-6.3456,-6.3547,-6.356,-6.3631,-6.3489,-6.3777,-6.3787,-6.3796,-6.3922,-6.3944,-6.3963,0,0,0,0,0,-6.3402,-6.3509,-6.3476,-6.3489,-6.3543,-6.3605,-6.3611,-6.3571,-6.3511,-6.356,-6.3546,-6.349,-6.3616,-6.3557,-6.357,-6.3644,-6.3772,-6.3784,-6.3796,-6.3912,-6.394,-6.3963,0,0,0,0,0,0,-6.3522,-6.3508,-6.3471,-6.3581,-6.3595,-6.3586,-6.3647,-6.3601,-6.3632,-6.362,-6.3568,-6.3569,-6.3665,-6.3663,-6.3597,-6.377,-6.3684,-6.3699,-6.3768,-6.3794,-6.3814,-6.3812,-6.3493,0,0,0,0,0,-6.3561,-6.3613,-6.3598,-6.3697,-6.3705,-6.3676,-6.3701,-6.3669,-6.3681,-6.3686,-6.3679,-6.3692,-6.3734,-6.3764,-6.3802,-6.3921,-6.3919,-6.3978,-6.3999,-6.4016,-6.403,-6.4092,-6.4118,-6.384,-6.384,-6.384,0,0,-6.3643,-6.3642,-6.3678,-6.3721,-6.3728,-6.3782,-6.3681,-6.3743,-6.3782,-6.3695,-6.3777,-6.3772,-6.3783,-6.3887,-6.3932,-6.3888,-6.4106,-6.4031,-6.4045,-6.4049,-6.4106,-6.4133,-6.4156,-6.3848,-6.3846,-6.3845,0,0,-6.382,-6.3825,-6.3907,-6.3916,-6.3928,-6.3907,-6.3927,-6.3925,-6.3918,-6.4,-6.3935,-6.3981,-6.4055,-6.4066,-6.4081,-6.4261,-6.421,-6.4275,-6.4383,-6.4444,-6.4466,-6.4485,-6.4549,-6.4573,-6.4288,-6.4289,-6.4289,0,-6.392,-6.4,-6.3955,-6.4021,-6.4041,-6.3965,-6.4047,-6.4058,-6.4082,-6.4097,-6.4048,-6.414,-6.4142,-6.4246,-6.429,-6.4305,-6.4326,-6.4275,-6.4467,-6.4486,-6.4503,-6.4563,-6.4587,-6.4296,-6.4296,-6.4295,-6.4294,0,-6.4122,-6.4178,-6.4243,-6.4269,-6.4296,-6.437,-6.4336,-6.4369,-6.4334,-6.4318,-6.4401,-6.4401,-6.4437,-6.446,-6.4426,-6.4559,-6.4532,-6.4476,-6.4388,-6.4538,-6.4594,-6.4617,-6.4308,-6.4305,-6.4303,-6.4301,0,0,-6.4376,-6.4375,-6.44,-6.441,-6.4417,-6.4459,-6.4529,-6.4565,-6.4594,-6.4613,-6.467,-6.4735,-6.4682,-6.47,-6.4666,-6.472,-6.4862,-6.4657,-6.4656,-6.4695,-6.5009,-6.5051,-6.5079,-6.4828,-6.4832,-6.4835,-6.5008,0,-6.4549,-6.467,-6.4631,-6.4753,-6.4804,-6.4731,-6.4792,-6.4802,-6.4789,-6.483,-6.4814,-6.4861,-6.4789,-6.4799,-6.4848,-6.4835,-6.4924,-6.4821,-6.488,-6.4883,-6.488,-6.5108,-6.5153,-6.5316,-6.5029,-6.5033,-6.5035,0,-6.4768,-6.4796,-6.4923,-6.492,-6.494,-6.4996,-6.5025,-6.5065,-6.5075,-6.5061,-6.5081,-6.5036,-6.5103,-6.5016,-6.5107,-6.5038,-6.506,-6.5056,-6.5062,-6.5066,-6.4969,-6.5119,-6.5367,-6.5392,-6.5069,-6.5067,-6.5064,0,-6.4941,-6.501,-6.5094,-6.5105,-6.5105,-6.5145,-6.5147,-6.5152,-6.5176,-6.5201,-6.5216,-6.5249,-6.5267,-6.5293,-6.5258,-6.5197,-6.5355,-6.5264,-6.5345,-6.5347,-6.5382,-6.5381,-6.5638,-6.5396,-6.5396,-6.5395,-6.5395,0,-6.5139,-6.5219,-6.5172,-6.5224,-6.5312,-6.5265,-6.5353,-6.5346,-6.5351,-6.54,-6.5339,-6.5386,-6.5337,-6.5379,-6.5352,-6.5432,-6.544,-6.5431,-6.5423,-6.5437,-6.5438,-6.545,-6.5438,-6.5402,-6.54,-6.5399,-6.5398,0,-6.5347,-6.5318,-6.5406,-6.5398,-6.5398,-6.5463,-6.5455,-6.5503,-6.5485,-6.5547,-6.5559,-6.5531,-6.5578,-6.5545,-6.5591,-6.5573,-6.5678,-6.5654,-6.5675,-6.5669,-6.5752,-6.5745,-6.6026,-6.6061,-6.5797,-6.5799,-6.5802,0,-6.5475,-6.5536,-6.5534,-6.5563,-6.5568,-6.5615,-6.5639,-6.5595,-6.5623,-6.5638,-6.5684,-6.5725,-6.5756,-6.5833,-6.5816,-6.5851,-6.5827,-6.5924,-6.5832,-6.5844,-6.5829,-6.5826,-6.5832,-6.5942,-6.5946,-6.5948,-6.595,0,-6.5706,-6.5689,-6.5726,-6.5759,-6.5789,-6.5813,-6.5831,-6.5858,-6.5813,-6.5847,-6.5894,-6.5918,-6.5965,-6.6007,-6.6035,-6.6035,-6.5986,-6.5979,-6.6,-6.6015,-6.6025,-6.602,-6.5726,-6.5973,-6.5971,-6.5969,-6.5968,-6.5967,-6.5878,-6.5928,-6.5935,-6.5978,-6.5988,-6.6006,-6.605,-6.6037,-6.6076,-6.6111,-6.6083,-6.6139,-6.6146,-6.6179,-6.6185,-6.6228,-6.6188,-6.6218,-6.6226,-6.6234,-6.6246,-6.6018,-6.6233,-6.6232,-6.6232,-6.6231,-6.623,0,-6.6106,-6.6107,-6.6147,-6.6175,-6.6209,-6.6159,-6.6176,-6.6208,-6.6258,-6.6269,-6.63,-6.6354,-6.6394,-6.638,-6.6415,-6.6452,-6.643,-6.6463,-6.646,-6.646,-6.6279,-6.6258,-6.648,-6.648,-6.648,-6.648,-6.648,-6.6479,-6.6229,-6.6311,-6.6294,-6.6379,-6.6379,-6.6434,-6.6448,-6.6464,-6.6472,-6.6535,-6.6568,-6.6559,-6.656,-6.6594,-6.6628,-6.6623,-6.6639,-6.668,-6.6667,-6.6498,-6.6473,-6.645,-6.643,-6.6684,-6.6684,-6.6844,-6.6845,-6.6847]}]]